STARLINK-35396 (65828 NORAD) Tracking and Keplerian Element Data

This shows tracking and keplerian element data for the satellite.

Feedback or suggestion? Click here.




ElementValue
Catalog65828
NameSTARLINK-35396
Epoch Orbit1388
Epoch Day354.00828203
Epoch Year2025
RAAN98.4678
Inclination53.161
Eccentricity9.2E-06
Argument of Perigee125.8785
Mean Anonmoly234.2225
Mean Motion15.3022134
Decay Rate0.00022751
L11 65828U 25221F 25354.00828203 .00022751 00000+0 77741-3 0 9998
L22 65828 53.1610 98.4678 0000092 125.8785 234.2225 15.30221340 13887



Live tracking and technical data element details for STARLINK-35396 (NORAD 65828). STARLINK-35396 can be tracked NOW for your location showing map with azimuth and elevation plus other details from your city location.







IsCatalogInMostPopularTable: catalog: 65828, numindb: 9
Update: records affected: 1



GetName: 65828 STARLINK-35396

Hit Count: updated at: Tue, 21 Apr 2026 20:30:03 GMT